Вернуться в каталог

OSCAR 23

АктивенЛюбительское радиоPO
NORAD 19070·PAYLOAD·🇺🇸 United States

Запущен Apr 26, 1988 с Vandenberg Space Force Base

Loading…

Ближайшие Пролёты (ближайшие 24 часа)

TLE

СвежийSource: Space-Track

Эпоха: Sep 14, 2026, 15:11 UTC

1 19070U 88033A   26257.63276385  .00000041  00000-0  62573-4 0  9993
2 19070  90.3357  25.1331 0190878 132.7758 308.8385 13.27827985859141

Отслеживайте OSCAR 23 в реальном времени с AllMySat

Download on the App Store